Regional Weather Roundup
Issued by NWS Sterling, VA

Home | Current Version | Previous Version | Graphics & Text | Print | Product List | Glossary On
Versions: 1 2 3 4 5 6 7 8 9 10 11 12 13 14 15 16 17 18 19 20 21 22 23 24 25 26 27
000
ASUS41 KLWX 280010
RWRLWX

REGIONAL WEATHER ROUNDUP
NATIONAL WEATHER SERVICE BALTIMORE MD/WASHINGTON DC
800 PM EDT WED JUL 27 2016

Note: "FAIR" indicates few or no clouds below 12,000 feet
with no significant weather and/or obstructions to visibility.
 TC=TEMPERATURE CELSIUS

 * =Non NWS site. Station does not report precipitation (e.g. rain,
    snow, etc.), thunder, or fog.

DCZ001-MDZ009-015-VAZ040>042-051-053>054-280100-
WASHINGTON METRO

CITY           SKY/WX    TMP DP  RH WIND       PRES   REMARKS
WASHINGTON NAT MOCLDY    90  69  50 S8        29.91R HX  94
DULLES         MOCLDY    88  67  49 S5        29.91R HX  91
ANDREWS AFB    CLOUDY    83  74  72 S3        29.91R HX  90
FT BELVOIR     FAIR      88  70  55 S2        29.90R HX  93
QUANTICO       FAIR      86  74  67 NW6       29.91R HX  94
LEESBURG*      FAIR      88  73  62 CALM      29.93S HX  96
MANASSAS*      MOCLDY    88  72  58 CALM      29.92R HX  94
GAITHERSBURG*  CLOUDY    84  66  54 CALM      29.96R

$$

MDZ006>007-011-014-280100-
BALTIMORE METRO

CITY           SKY/WX    TMP DP  RH WIND       PRES   REMARKS
BWI AIRPORT    MOCLDY    88  70  55 SE6       29.90R HX  93
MD SCIENCE CTR   N/A     89  68  49 MISG      29.91R HX  93
MARTIN STATE   PTCLDY    86  75  70 CALM      29.92R HX  95
ANNAPOLIS      PTCLDY    87  73  62 S6        29.90R HX  94

$$

MDZ012-015-019>023-280100-
MARYLAND EASTERN SHORE

CITY           SKY/WX    TMP DP  RH WIND       PRES   REMARKS
OCEAN CITY     CLOUDY    81  75  82 S3        29.90S
SALISBURY      MOCLDY    83  79  88 SW3       29.90S HX  94

$$

MDZ017>025-280100-
SOUTHERN MARYLAND

CITY           SKY/WX    TMP DP  RH WIND       PRES   REMARKS
PATUXENT RIVER CLOUDY    85  71  63 S6        29.90F HX  90
ST INIGOES     CLOUDY    84  75  74 S5        29.90F HX  92
LEONARDTOWN*     N/A     82  70  65 MISG        N/A

$$

MDZ003>005-280100-
NORTH CENTRAL MARYLAND

CITY           SKY/WX    TMP DP  RH WIND       PRES   REMARKS
FREDERICK*     CLEAR     88  66  48 SW6       29.94R HX  90
HAGERSTOWN APT PTCLDY    89  63  41 S6        29.92R HX  90

$$

MDZ501>502-280100-
WESTERN MARYLAND

CITY           SKY/WX    TMP DP  RH WIND       PRES   REMARKS
OAKLAND*       PTCLDY    73  64  73 CALM      30.08R
CUMBERLAND*    PTCLDY    88  64  45 CALM      29.97R

$$

VAZ025>031-280100-
SHENANDOAH VALLEY

CITY           SKY/WX    TMP DP  RH WIND       PRES   REMARKS
WINCHESTER*    FAIR      77  68  73 SW6       29.95S
FRONT ROYAL*   FAIR      72  70  94 SW5       29.94F
LURAY*         MOCLDY    75  75 100 CALM      29.98S
NEW MARKET*    MOCLDY   N/A N/A N/A NE6       29.96S
STAUNTON*      FAIR      73  72  97 CALM      30.02S
WAYNESBORO*    FAIR      73  72  95 S5        30.01S

$$

WVZ021-048>050-054>055-280100-
EASTERN WEST VIRGINIA PANHANDLE

CITY           SKY/WX    TMP DP  RH WIND       PRES   REMARKS
MARTINSBURG    MOCLDY    85  67  54 S7        29.92R
PETERSBURG*    MOCLDY    89  70  53 CALM      29.94R HX  95

$$

VAZ036>039-050-280100-
CENTRAL FOOTHILLS

CITY           SKY/WX    TMP DP  RH WIND       PRES   REMARKS
CHARLOTTESVILL FAIR      79  74  84 VRB3      29.94F
CULPEPER*      FAIR      85  75  72 NW3       29.93S HX  94
ORANGE*          N/A     81  75  83 S3        29.95S
GORDONSVILLE*  FAIR      81  73  78 SW5       29.93S
WARRENTON*     FAIR      86  67  52 SW3       29.91F

$$

VAZ055>057-280100-
NORTH AND CENTRAL PIEDMONT

CITY           SKY/WX    TMP DP  RH WIND       PRES   REMARKS
FREDERICKSBRG*   N/A     85  75  71 CALM      29.90F HX  94
STAFFORD*      FAIR      83  75  78 CALM      29.95F HX  90

$$

NCZ024-NYZ072-PAZ021-071-VAZ022-071-280100-
OTHER REGIONAL OBSERVATIONS

CITY           SKY/WX    TMP DP  RH WIND       PRES   REMARKS
NEW YORK CITY  CLEAR     84  65  52 CALM      29.91S
PHILADELPHIA   PTCLDY    90  62  39 NW9       29.89R HX  90
PITTSBURGH     PTCLDY    86  57  37 E6        29.96R
ROANOKE        FAIR      77  74  90 E5        30.02R
RICHMOND       CLOUDY    85  76  74 NE5       29.91S HX  94
RALEIGH        MOCLDY    84  71  65 VRB7      29.95R

$$

ANZ530>537-280100-
MARINE OBSERVATIONS

STATION/POSITION TIME  TEMP    WIND        PRES
                       AIR SEA DIR/SP/G
                 (UTC) (F)     (DEG/KT/KT) (MB)
THOMAS PT LIGHT  0000   87 85  150/  4/  4 1014.0R
BALT KEY BRIDGE  2336                      1012.5
COVE POINT       2336                      1013.1
LEWISETTA        2336                      1012.6
SOLOMONS ISLAND  2324      86  170/  1/  1   N/A
PINEY POINT      2330          210/ 10/ 11   N/A

$$





USA.gov is the U.S. government's official web portal to all federal, state and local government web resources and services.